Погода в Волоке

Россия / Новгородская область     58°30′52″N   33°45′30″E
темп.,
°C
ветер,
м/с
пор.,
м/с
влажн.,
%
обл.,
%
осадки,
мм/ч
давл.,
гПа
погр.,
м
18 января, пн
пн1800:00−14зюз249699 0.1 1018185
03:00−14зюз249695 0.4 1018151
06:00−13зюз2496100 0.1 1017158
09:00−13зюз239699 0.3 1018132
12:00−11зюз249381 0.1 1018229
15:00−11зюз119488 0.2 101836
18:00−13з129792 0.1 101821
21:00−13юз119791 0.1 101821
19 января, вт
вт1900:00−14юз119786 0.1 101820
03:00−14з119785 0.1 101820
06:00−15зюз119892 0.0 101720
09:00−15ююз119794 0.1 101820
12:00−12юз1294100 0.1 1018112
15:00−11зюз119596 0.1 101724
18:00−14зюз129787 0.0 101720
21:00−14юз129789 0.0 101720
20 января, ср
ср2000:00−15юз129771 0.0 101720
03:00−15юз129769 0.0 101820
06:00−15юз129773 0.0 101820
09:00−15ююз229777 0.0 101820
12:00−12ю239245 0.0 1018129
15:00−11ююв249223 0.0 1017196
18:00−14ююв36940 0.0 1016132
21:00−14ююв398917 0.0 1015241
21 января, чт
чт2100:00−12ююв41182100 0.0 1012376
03:00−11ююв51386100 0.1 1009499
06:00−8ю51294100 1.8 1004759
09:00−7ю51294100 3.6 1001653
12:00−4ююз51394100 1.6 998590
15:00+2зюз61498100 2.7 997683
18:00+3зюз51397100 2.1 997592
21:00+2з31098100 2.4 999390
22 января, пт
пт2200:00−4ссз1396100 0.1 1002127
03:00−5всв2496100 0.9 1004182
06:00−6в3695100 0.8 1004224
09:00−7в3694100 1.9 1006234
12:00−7в3693100 0.1 1007240
15:00−7в4793100 0.2 1006238
18:00−6в4894100 0.1 1006246
21:00−7в4993100 0.1 1006283